User: anonymous   Login
Location: Cronhütte
(48.9135°N, 9.6869°E)
Time: 08:16:06
(UTC+00:00)
Language:

DELTA 2 R/B (1) - Orbit

View from above orbital plane
View from above orbital plane
View from above satellite
View from above satellite

Ground track
Ground track

The orbit data is extracted from the following two-line orbital elements,

1 27665U 03005C   24197.63769295  .00000165  00000-0  97695-4 0  9996
2 27665  39.5750 262.3918 0008054 161.7674 357.9937 14.29042019120623
Epoch (UTC): 15 July 2024 15:18:16
Eccentricity: 0.0008054
inclination: 39.5750°
perigee height: 789 km
apogee height: 801 km
right ascension of ascending node: 262.3918°
argument of perigee: 161.7674°
revolutions per day: 14.29042019
mean anomaly at epoch: 357.9937°
orbit number at epoch: 12062

The dashed part of the orbit path shows where the satellite is in the earth's shadow,  

DLR